FW5399 Weather Reports


Display with metric or nautical units.
time (UTC)temp
F
wind
direction
speed
MPH
gust
MPH
rain 1hr
in
rain 24hr
in
rain mn
in
humidity
%
barometer
mb
20260906002433 64 236 2.0 10.0 0.00 0.00 0.00 64 1014.0
20260906001933 64 220 2.0 8.0 0.00 0.00 0.00 63 1014.1
20260906001626 64 236 3.0 10.0 0.00 0.00 0.00 64 1014.1
20260906000433 65 241 2.0 10.0 0.00 0.00 0.00 62 1014.1
20260905235927 66 284 1.0 7.0 0.00 0.00 0.00 62 1014.2
20260905235432 66 265 1.0 4.0 0.00 0.00 0.00 64 1014.4
20260905234929 65 319 1.0 5.0 0.00 0.00 0.00 63 1014.5
20260905234425 65 210 1.0 5.0 0.00 0.00 0.00 61 1014.6
20260905233926 65 272 1.0 8.0 0.00 0.00 0.00 63 1014.9
20260905233425 65 38 2.0 8.0 0.00 0.00 0.00 62 1014.9
20260905232922 65 339 2.0 8.0 0.00 0.00 0.00 63 1015.1
20260905232423 65 253 2.0 7.0 0.00 0.00 0.00 63 1015.1
20260905231923 65 304 2.0 7.0 0.00 0.00 0.00 64 1015.2
20260905231426 65 341 2.0 7.0 0.00 0.00 0.00 62 1015.2
20260905230923 64 305 2.0 7.0 0.00 0.00 0.00 66 1015.3
20260905230439 64 322 2.0 7.0 0.00 0.00 0.00 66 1015.6
20260905225924 64 302 1.0 7.0 0.00 0.00 0.00 67 1015.8
20260905225421 63 272 1.0 3.0 0.00 0.00 0.00 70 1015.7
20260905225059 61 189 0.0 2.0 0.00 0.00 0.00 74 1015.8
20260905225011 62 220 0.0 3.0 0.00 0.00 0.00 75 1015.7
20260905223406 60 150 1.0 4.0 0.00 0.00 0.00 76 1016.1
20260905222901 60 204 0.0 2.0 0.00 0.00 0.00 77 1016.2
20260905222555 59 209 1.0 3.0 0.00 0.00 0.00 79 1016.3
20260905222444 59 153 0.0 3.0 0.00 0.00 0.00 77 1016.2
20260905220837 59 154 1.0 2.0 0.00 0.00 0.00 79 1016.4
20260905220331 58 140 0.0 2.0 0.00 0.00 0.00 79 1016.4
20260905215824 58 177 0.0 2.0 0.00 0.00 0.00 79 1016.3
20260905215318 58 173 1.0 4.0 0.00 0.00 0.00 81 1016.4
20260905214812 58 192 1.0 4.0 0.00 0.00 0.00 82 1016.4
20260905214306 58 198 1.0 5.0 0.00 0.00 0.00 82 1016.8
20260905213802 57 168 1.0 5.0 0.00 0.00 0.00 82 1016.9
20260905213254 57 217 1.0 4.0 0.00 0.00 0.00 82 1016.9
20260905212748 57 162 2.0 5.0 0.00 0.00 0.00 83 1016.9
20260905212243 57 176 2.0 5.0 0.00 0.00 0.00 82 1017.0
20260905211736 57 187 1.0 3.0 0.00 0.00 0.00 83 1016.8
20260905211654 56 187 1.0 3.0 0.00 0.00 0.00 84 1017.0
20260905211120 56 203 1.0 3.0 0.00 0.00 0.00 85 1017.2
20260905210224 55 216 1.0 4.0 0.00 0.00 0.00 85 1017.1
20260905205721 54 113 1.0 4.0 0.00 0.00 0.00 88 1017.1
20260905205357 53 172 2.0 6.0 0.00 0.00 0.00 89 1017.1
20260905204221 52 171 3.0 7.0 0.00 0.00 0.00 90 1017.2
20260905203721 51 161 2.0 7.0 0.00 0.00 0.00 91 1017.3
20260905203225 51 145 2.0 5.0 0.00 0.00 0.00 91 1017.3
20260905202719 50 113 2.0 6.0 0.00 0.00 0.00 92 1017.3
20260905202219 50 151 1.0 6.0 0.00 0.00 0.00 93 1017.2
20260905201719 50 129 0.0 2.0 0.00 0.00 0.00 95 1017.2
20260905201624 49 258 0.0 2.0 0.00 0.00 0.00 95 1017.2
20260905200713 49 196 0.0 3.0 0.00 0.00 0.00 96 1017.1
20260905200414 48 222 0.0 1.0 0.00 0.00 0.00 100 1017.0
20260905200311 48 196 0.0 3.0 0.00 0.00 0.00 99 1017.1
20260905194710 46 220 0.0 0.0 0.00 0.00 0.00 100 1017.1
20260905194210 45 220 0.0 0.0 0.00 0.00 0.00 100 1017.2
20260905193709 45 220 0.0 2.0 0.00 0.00 0.00 100 1017.0
20260905193206 44 220 0.0 2.0 0.00 0.00 0.00 99 1017.0
20260905193102 44 220 0.0 2.0 0.00 0.00 0.00 100 1016.9
20260905192203 43 218 0.0 1.0 0.00 0.00 0.00 100 1016.8
20260905191709 43 218 0.0 1.0 0.00 0.00 0.00 100 1016.9
20260905191208 42 279 0.0 0.0 0.00 0.00 0.00 100 1016.8
20260905190707 41 279 0.0 0.0 0.00 0.00 0.00 100 1016.8
20260905190216 40 279 0.0 0.0 0.00 0.00 0.00 99 1016.9
20260905185716 39 279 0.0 0.0 0.00 0.00 0.00 99 1016.8
20260905185605 39 279 0.0 0.0 0.00 0.00 0.00 99 1016.7
20260905184702 38 279 0.0 0.0 0.00 0.00 0.00 98 1016.5
20260905184201 38 279 0.0 0.0 0.00 0.00 0.00 98 1016.4
20260905183701 38 279 0.0 0.0 0.00 0.00 0.00 98 1016.4
20260905183201 38 279 0.0 0.0 0.00 0.00 0.00 98 1016.4
20260905182659 39 279 0.0 0.0 0.00 0.00 0.00 98 1016.4
20260905182201 39 279 0.0 0.0 0.00 0.00 0.00 98 1016.4
20260905181659 39 279 0.0 0.0 0.00 0.00 0.00 99 1016.2
20260905181601 39 279 0.0 0.0 0.00 0.00 0.00 98 1016.3
20260905180701 39 279 0.0 0.0 0.00 0.00 0.00 98 1016.3
20260905180201 39 279 0.0 0.0 0.00 0.00 0.00 98 1016.2
20260905175659 40 279 0.0 0.0 0.00 0.00 0.00 98 1016.3
20260905175602 40 279 0.0 0.0 0.00 0.00 0.00 98 1016.1
20260905174838 40 279 0.0 0.0 0.00 0.00 0.00 98 1016.1
20260905174053 41 279 0.0 1.0 0.00 0.00 0.00 98 1016.4
20260905173137 41 279 0.0 1.0 0.00 0.00 0.00 98 1016.4
20260905172631 42 279 0.0 2.0 0.00 0.00 0.00 99 1016.3
20260905172127 42 159 0.0 2.0 0.00 0.00 0.00 99 1016.3
20260905171622 41 160 0.0 1.0 0.00 0.00 0.00 98 1016.2
20260905171113 41 266 0.0 0.0 0.00 0.00 0.00 98 1016.2
20260905170607 41 267 0.0 0.0 0.00 0.00 0.00 98 1016.3
20260905170101 42 266 0.0 0.0 0.00 0.00 0.00 98 1016.5
20260905165943 42 266 0.0 0.0 0.00 0.00 0.00 98 1016.5
20260905165052 42 266 0.0 0.0 0.00 0.00 0.00 98 1016.8
20260905164544 42 266 0.0 0.0 0.00 0.00 0.00 98 1016.7
20260905164037 42 270 0.0 0.0 0.00 0.00 0.00 99 1016.5
20260905163531 42 270 0.0 0.0 0.00 0.00 0.00 98 1016.4
20260905163025 42 270 0.0 0.0 0.00 0.00 0.00 98 1016.4
20260905162522 42 270 0.0 0.0 0.00 0.00 0.00 98 1016.5
20260905162014 42 270 0.0 0.0 0.00 0.00 0.00 98 1016.5
20260905161507 42 270 0.0 0.0 0.00 0.00 0.00 98 1016.4
20260905161409 42 270 0.0 1.0 0.00 0.00 0.00 98 1016.4
20260905160456 42 270 0.0 1.0 0.00 0.00 0.00 98 1016.5
20260905155951 42 17 0.0 0.0 0.00 0.00 0.00 98 1016.7
20260905155443 42 16 0.0 1.0 0.00 0.00 0.00 98 1016.7
20260905155326 42 18 0.0 2.0 0.00 0.00 0.00 98 1016.5
20260905154432 42 319 0.0 2.0 0.00 0.00 0.00 99 1016.5
20260905153925 42 260 0.0 0.0 0.00 0.00 0.00 98 1016.4
20260905153421 42 260 0.0 0.0 0.00 0.00 0.00 99 1016.7
20260905152914 42 260 0.0 1.0 0.00 0.00 0.00 99 1016.5
20260905152408 42 260 0.0 1.0 0.00 0.00 0.00 99 1016.5
20260905151901 41 260 0.0 1.0 0.00 0.00 0.00 98 1016.5
20260905151355 41 260 0.0 1.0 0.00 0.00 0.00 98 1016.7
20260905150851 40 260 0.0 0.0 0.00 0.00 0.00 97 1016.7
20260905150344 40 260 0.0 0.0 0.00 0.00 0.00 97 1016.5
20260905150021 40 260 0.0 0.0 0.00 0.00 0.00 98 1016.7
20260905144826 40 259 0.0 1.0 0.00 0.00 0.00 98 1016.8
20260905144321 40 260 0.0 0.0 0.00 0.00 0.00 97 1016.7
20260905143813 40 260 0.0 0.0 0.00 0.00 0.00 97 1016.4
20260905143308 40 260 0.0 0.0 0.00 0.00 0.00 97 1016.4
20260905142801 40 260 0.0 0.0 0.00 0.00 0.00 97 1016.7
20260905142653 40 260 0.0 0.0 0.00 0.00 0.00 97 1016.8
20260905141751 40 260 0.0 0.0 0.00 0.00 0.00 97 1017.0
20260905141251 40 260 0.0 0.0 0.00 0.00 0.00 96 1017.2
20260905140751 40 259 0.0 0.0 0.00 0.00 0.00 96 1017.3
20260905140251 40 259 0.0 0.0 0.00 0.01 0.00 96 1017.2
20260905135755 40 259 0.0 0.0 0.00 0.01 0.00 97 1017.3
20260905135700 40 259 0.0 0.0 0.00 0.01 0.00 96 1017.4
20260905134751 40 260 0.0 0.0 0.00 0.01 0.00 96 1017.3
20260905134249 40 259 0.0 0.0 0.00 0.01 0.00 95 1017.4
20260905133746 40 259 0.0 0.0 0.00 0.01 0.00 96 1017.5
20260905133652 41 260 0.0 0.0 0.00 0.01 0.00 95 1017.6
20260905132747 41 259 0.0 0.0 0.00 0.01 0.00 96 1017.7
20260905132247 41 260 0.0 0.0 0.00 0.01 0.00 95 1017.6
20260905132138 41 259 0.0 0.0 0.00 0.01 0.00 95 1017.6
20260905131246 41 259 0.0 0.0 0.00 0.01 0.00 95 1017.8
20260905130747 41 259 0.0 0.0 0.00 0.01 0.00 95 1017.9
20260905130254 42 259 0.0 0.0 0.00 0.01 0.00 95 1017.7
20260905130153 42 259 0.0 2.0 0.00 0.01 0.00 95 1017.6
20260905125254 42 259 0.0 2.0 0.00 0.01 0.00 94 1017.7
20260905124745 42 297 0.0 0.0 0.00 0.01 0.00 93 1017.5
20260905124644 42 297 0.0 0.0 0.00 0.01 0.00 92 1017.6
20260905123751 42 297 0.0 0.0 0.00 0.01 0.00 92 1017.5
20260905123243 43 297 0.0 0.0 0.00 0.01 0.00 92 1017.7
20260905122742 43 297 0.0 0.0 0.00 0.01 0.00 92 1017.6
20260905122246 44 297 0.0 1.0 0.00 0.01 0.00 91 1017.7
20260905122135 44 297 0.0 1.0 0.00 0.01 0.00 91 1017.5
20260905121242 45 297 0.0 0.0 0.00 0.01 0.00 90 1017.4
20260905120740 45 297 0.0 0.0 0.00 0.01 0.00 89 1017.3
20260905120634 46 297 0.0 1.0 0.00 0.01 0.00 90 1017.3
20260905115737 47 297 0.0 1.0 0.00 0.01 0.01 90 1017.6
20260905115238 47 296 0.0 1.0 0.00 0.01 0.01 89 1017.7
20260905114734 47 307 0.0 1.0 0.00 0.01 0.01 89 1017.7
20260905114631 47 307 0.0 2.0 0.00 0.01 0.01 90 1017.7
20260905113733 47 317 0.0 2.0 0.00 0.01 0.01 89 1017.8
20260905113231 47 223 0.0 2.0 0.00 0.01 0.01 87 1017.9
20260905112734 48 241 0.0 1.0 0.00 0.01 0.01 87 1017.8
20260905112233 48 358 0.0 0.0 0.00 0.01 0.01 85 1017.9
20260905111731 49 358 0.0 0.0 0.00 0.01 0.01 85 1018.1
20260905111232 50 358 0.0 0.0 0.00 0.01 0.01 84 1017.8
20260905110730 51 358 0.0 1.0 0.00 0.01 0.01 83 1017.7
20260905110247 51 358 0.0 1.0 0.00 0.01 0.01 80 1017.3
20260905105731 52 359 0.0 3.0 0.00 0.01 0.01 80 1017.2
20260905105650 52 326 0.0 3.0 0.00 0.01 0.01 78 1017.2
20260905105125 52 315 0.0 4.0 0.00 0.01 0.01 78 1017.1
20260905104225 52 317 0.0 4.0 0.00 0.01 0.01 78 1017.2
20260905103721 52 3 0.0 3.0 0.00 0.01 0.01 79 1017.4
20260905103222 52 308 0.0 3.0 0.00 0.01 0.01 79 1017.4
20260905103108 52 302 0.0 3.0 0.00 0.01 0.01 78 1017.4
20260905102218 53 326 0.0 4.0 0.00 0.01 0.01 78 1017.4
20260905101717 53 279 0.0 4.0 0.00 0.01 0.01 78 1017.6
20260905101217 53 256 1.0 3.0 0.00 0.01 0.01 78 1017.7
20260905100717 53 317 1.0 4.0 0.00 0.01 0.01 78 1017.6
20260905100214 53 351 1.0 7.0 0.00 0.01 0.01 79 1017.4
20260905095728 53 326 1.0 10.0 0.00 0.01 0.01 79 1017.4
20260905095214 52 345 1.0 10.0 0.00 0.01 0.01 80 1017.6
20260905095132 52 307 1.0 9.0 0.00 0.01 0.01 81 1017.6
20260905094219 51 343 1.0 9.0 0.00 0.01 0.01 86 1017.5
20260905093719 47 0 0.0 3.0 0.00 0.01 0.01 97 1017.6
20260905093218 45 329 0.0 1.0 0.00 0.01 0.01 97 1017.7
20260905092719 44 249 0.0 0.0 0.00 0.01 0.01 96 1017.6
20260905092214 44 249 0.0 0.0 0.00 0.01 0.01 96 1017.7
20260905091717 44 249 0.0 1.0 0.00 0.01 0.01 96 1017.8
20260905091215 44 249 0.0 1.0 0.00 0.01 0.01 96 1017.9
20260905090716 43 249 0.0 3.0 0.00 0.01 0.01 96 1017.7
20260905090629 43 248 0.0 3.0 0.00 0.01 0.01 95 1017.5
20260905085921 43 292 0.0 0.0 0.00 0.01 0.01 95 1017.8
20260905085821 43 261 0.0 1.0 0.00 0.01 0.01 95 1017.6
20260905084212 43 291 0.0 0.0 0.00 0.01 0.01 95 1017.5
20260905083710 43 291 0.0 0.0 0.00 0.01 0.01 94 1017.4
20260905083212 43 291 0.0 0.0 0.00 0.01 0.01 94 1017.4
20260905083124 43 291 0.0 0.0 0.00 0.01 0.01 93 1017.1
20260905082622 44 291 0.0 0.0 0.00 0.01 0.01 94 1017.2
20260905081903 44 292 0.0 0.0 0.00 0.01 0.01 94 1017.1
20260905080712 44 292 0.0 0.0 0.00 0.01 0.01 93 1016.9
20260905080213 44 291 0.0 0.0 0.00 0.01 0.01 92 1017.0
20260905075713 45 291 0.0 0.0 0.00 0.01 0.01 92 1017.1
20260905075207 45 292 0.0 0.0 0.00 0.01 0.01 92 1017.1
20260905074702 45 291 0.0 0.0 0.00 0.01 0.01 91 1017.0
20260905074159 46 292 0.0 0.0 0.00 0.01 0.01 91 1017.0
20260905073700 46 292 0.0 0.0 0.00 0.01 0.01 91 1016.9
20260905073157 46 292 0.0 0.0 0.00 0.01 0.01 91 1016.9
20260905072700 47 291 0.0 0.0 0.00 0.01 0.01 91 1016.7
20260905072204 47 292 0.0 0.0 0.00 0.01 0.01 91 1016.5
20260905071658 47 292 0.0 0.0 0.00 0.01 0.01 92 1016.4
20260905071155 47 291 0.0 0.0 0.00 0.01 0.01 91 1016.4
20260905070654 47 292 0.0 0.0 0.00 0.01 0.01 91 1016.3
20260905070154 47 292 0.0 2.0 0.00 0.01 0.01 91 1016.3
20260905065651 47 286 0.0 2.0 0.00 0.01 0.01 90 1016.4
20260905065150 47 286 0.0 1.0 0.00 0.01 0.01 89 1016.3
20260905065043 48 296 0.0 0.0 0.00 0.01 0.01 88 1016.5
20260905063650 49 301 0.0 0.0 0.00 0.01 0.01 87 1016.4
20260905063155 50 301 0.0 1.0 0.00 0.01 0.01 87 1016.3
20260905062646 50 301 0.0 1.0 0.00 0.01 0.01 86 1016.0
20260905062146 51 301 0.0 1.0 0.00 0.01 0.01 85 1016.2
20260905061653 51 301 0.0 1.0 0.00 0.01 0.01 84 1016.2
20260905061152 52 303 0.0 1.0 0.00 0.01 0.01 82 1016.1
20260905060700 53 303 0.0 1.0 0.00 0.01 0.01 80 1016.0
20260905060141 54 303 0.0 0.0 0.00 0.01 0.01 78 1015.9
20260905055631 55 303 0.0 0.0 0.00 0.01 0.01 76 1015.8
20260905055521 56 303 0.0 0.0 0.00 0.01 0.01 74 1015.7
20260905054618 57 303 0.0 0.0 0.00 0.01 0.01 73 1015.7
20260905054112 58 303 0.0 0.0 0.00 0.01 0.01 71 1015.8
20260905053605 58 303 0.0 1.0 0.00 0.01 0.01 70 1015.9
20260905053101 59 303 0.0 1.0 0.00 0.01 0.01 68 1015.8
20260905052951 60 352 0.0 2.0 0.00 0.01 0.01 67 1015.9
20260905052048 60 291 0.0 2.0 0.00 0.01 0.01 66 1015.7
20260905051543 60 9 0.0 4.0 0.00 0.01 0.01 65 1015.8
20260905051039 61 351 0.0 4.0 0.00 0.01 0.01 65 1015.8
20260905050921 61 341 0.0 2.0 0.00 0.02 0.01 62 1015.8
20260905050021 62 310 0.0 2.0 0.00 0.02 0.01 63 1015.8
20260905045513 62 297 0.0 3.0 0.00 0.02 0.01 61 1015.8
20260905045014 63 272 1.0 6.0 0.00 0.02 0.01 63 1015.9
20260905044514 63 222 1.0 6.0 0.00 0.02 0.01 62 1015.8
20260905044414 64 241 1.0 6.0 0.00 0.02 0.01 61 1015.7
20260905043519 65 322 1.0 6.0 0.00 0.02 0.01 60 1015.7
20260905043019 65 3 0.0 3.0 0.00 0.02 0.01 60 1015.8
20260905042517 65 291 1.0 5.0 0.00 0.02 0.01 60 1015.6
20260905042010 65 274 1.0 5.0 0.00 0.02 0.01 59 1015.7
20260905041510 66 246 1.0 7.0 0.00 0.02 0.01 58 1015.8
20260905041011 67 287 1.0 7.0 0.00 0.02 0.01 57 1015.8
20260905040505 67 261 1.0 7.0 0.00 0.02 0.01 56 1015.8
20260905040007 68 289 1.0 7.0 0.00 0.02 0.01 55 1015.9
20260905035504 68 281 0.0 4.0 0.00 0.02 0.01 57 1015.7
20260905035004 68 298 0.0 4.0 0.00 0.02 0.01 54 1015.7
20260905034504 67 255 1.0 4.0 0.00 0.02 0.01 55 1015.6
20260905034401 68 37 1.0 7.0 0.00 0.02 0.01 53 1015.8
20260905033504 68 300 1.0 7.0 0.00 0.02 0.01 54 1015.8
20260905033006 68 321 1.0 5.0 0.00 0.03 0.01 55 1015.9
20260905032501 67 331 1.0 9.0 0.00 0.04 0.01 56 1015.9
20260905032351 67 355 1.0 9.0 0.00 0.05 0.01 55 1015.9
20260905031448 67 343 1.0 5.0 0.00 0.05 0.01 55 1016.0
20260905030942 68 316 1.0 4.0 0.00 0.06 0.01 56 1016.1
20260905030441 67 318 2.0 13.0 0.00 0.06 0.01 56 1015.8
20260905025939 68 15 2.0 13.0 0.00 0.06 0.01 55 1015.8
20260905025439 68 98 1.0 12.0 0.00 0.06 0.01 54 1015.9
20260905024941 68 293 1.0 8.0 0.00 0.06 0.01 54 1015.8
20260905024443 68 326 1.0 7.0 0.00 0.06 0.01 54 1015.9
20260905023941 68 271 2.0 8.0 0.00 0.06 0.01 53 1015.9
20260905023439 68 215 1.0 8.0 0.00 0.06 0.01 55 1015.9
20260905022941 68 288 1.0 4.0 0.00 0.06 0.01 56 1016.0
20260905022440 68 301 1.0 9.0 0.00 0.06 0.01 57 1016.1
20260905021941 68 23 1.0 9.0 0.00 0.06 0.01 55 1016.3
20260905021435 69 195 1.0 5.0 0.00 0.06 0.01 54 1016.3
20260905020936 68 288 1.0 8.0 0.00 0.06 0.01 55 1016.3
20260905020437 68 290 1.0 8.0 0.00 0.06 0.01 55 1016.3
20260905015937 68 7 1.0 7.0 0.00 0.06 0.01 58 1016.2
20260905015618 68 298 1.0 5.0 0.00 0.06 0.01 54 1016.4
20260905014437 68 11 1.0 7.0 0.00 0.06 0.01 55 1016.3
20260905013938 68 322 1.0 5.0 0.00 0.06 0.01 56 1016.4
20260905013433 68 281 1.0 7.0 0.00 0.06 0.01 56 1016.4
20260905012939 67 347 1.0 7.0 0.00 0.06 0.01 58 1016.4
20260905012438 67 339 1.0 6.0 0.00 0.06 0.01 56 1016.5
20260905012401 67 6 1.0 6.0 0.00 0.06 0.01 60 1016.5
20260905011434 67 338 2.0 7.0 0.00 0.06 0.01 57 1016.5
20260905010931 67 54 1.0 7.0 0.00 0.06 0.01 54 1016.7
20260905010429 68 316 1.0 7.0 0.00 0.06 0.01 57 1016.7
20260905010334 68 307 1.0 7.0 0.00 0.06 0.01 57 1016.5
20260905005614 67 314 1.0 9.0 0.00 0.06 0.01 59 1016.5
20260905004423 67 331 1.0 6.0 0.00 0.06 0.01 59 1016.8
20260905003930 67 207 1.0 6.0 0.00 0.06 0.01 58 1016.9
20260905003430 67 4 1.0 6.0 0.00 0.06 0.01 56 1016.9
20260905002927 66 339 1.0 4.0 0.00 0.06 0.01 56 1017.2
20260905002831 66 262 2.0 7.0 0.00 0.06 0.01 55 1017.3